TimeEST,TemperatureF,Dew PointF,Humidity,Sea Level PressureIn,VisibilityMPH,Wind Direction,Wind SpeedMPH,Gust SpeedMPH,PrecipitationIn,Events,Conditions,WindDirDegrees,DateUTC
12:22 AM,57.2,55.4,94,29.91,3.0,SW,5.8,-,0.05,Rain,Rain,220,2012-12-17 05:22:00
12:29 AM,57.2,55.4,94,29.91,2.0,SW,5.8,-,0.08,Rain,Rain,220,2012-12-17 05:29:00
12:48 AM,57.2,55.4,94,29.89,5.0,SSW,4.6,-,0.11,Rain,Light Rain,200,2012-12-17 05:48:00
12:53 AM,57.0,55.0,93,29.90,6.0,SSW,3.5,-,0.11,Rain,Light Rain,200,2012-12-17 05:53:00
1:53 AM,55.9,55.0,97,29.88,6.0,Calm,Calm,-,0.01,,Overcast,0,2012-12-17 06:53:00
2:53 AM,55.9,54.0,93,29.88,4.0,Calm,Calm,-,0.01,Rain,Light Rain,0,2012-12-17 07:53:00
3:02 AM,55.4,53.6,94,29.88,2.5,Calm,Calm,-,0.00,Rain,Light Rain,0,2012-12-17 08:02:00
3:12 AM,55.4,53.6,94,29.86,1.2,North,4.6,-,0.01,Rain,Light Rain,350,2012-12-17 08:12:00
3:26 AM,55.4,53.6,94,29.87,2.5,Calm,Calm,-,0.01,Rain,Light Rain,0,2012-12-17 08:26:00
3:33 AM,55.4,53.6,94,29.86,2.5,Calm,Calm,-,0.03,Rain,Light Rain,0,2012-12-17 08:33:00
3:53 AM,55.9,55.0,97,29.86,2.0,South,3.5,-,0.09,Rain,Rain,180,2012-12-17 08:53:00
4:06 AM,55.4,55.4,100,29.85,1.8,Calm,Calm,-,0.07,Rain,Heavy Rain,0,2012-12-17 09:06:00
4:32 AM,55.4,55.4,100,29.85,3.0,SSE,4.6,-,0.20,Rain,Light Rain,160,2012-12-17 09:32:00
4:53 AM,55.9,55.0,97,29.84,4.0,South,6.9,-,0.24,Rain,Light Rain,170,2012-12-17 09:53:00
5:53 AM,55.9,55.0,97,29.81,5.0,SSE,4.6,-,0.03,Rain,Light Rain,160,2012-12-17 10:53:00
5:59 AM,55.4,55.4,100,29.80,5.0,SSE,4.6,-,0.00,Rain,Light Rain,160,2012-12-17 10:59:00
6:53 AM,55.9,55.0,97,29.76,5.0,SSE,8.1,-,0.00,,Overcast,160,2012-12-17 11:53:00
7:53 AM,57.0,55.0,93,29.85,10.0,NW,8.1,-,N/A,,Overcast,320,2012-12-17 12:53:00
8:32 AM,57.2,55.4,94,29.84,10.0,North,5.8,-,N/A,,Overcast,350,2012-12-17 13:32:00
8:53 AM,57.0,55.0,93,29.86,10.0,WNW,3.5,-,N/A,,Overcast,290,2012-12-17 13:53:00
9:51 AM,57.2,55.4,94,29.85,10.0,SSE,3.5,-,N/A,,Overcast,150,2012-12-17 14:51:00
9:53 AM,57.9,55.9,93,29.85,10.0,Calm,Calm,-,N/A,,Overcast,0,2012-12-17 14:53:00
10:53 AM,62.1,57.0,84,29.84,10.0,South,3.5,-,N/A,,Partly Cloudy,170,2012-12-17 15:53:00
11:53 AM,64.0,55.9,75,29.81,10.0,Variable,3.5,-,N/A,,Clear,0,2012-12-17 16:53:00
12:53 PM,64.0,55.0,73,29.78,10.0,WSW,3.5,-,N/A,,Clear,240,2012-12-17 17:53:00
1:53 PM,64.0,55.9,75,29.76,10.0,South,8.1,-,N/A,,Scattered Clouds,190,2012-12-17 18:53:00
2:53 PM,64.0,55.9,75,29.77,10.0,South,5.8,-,N/A,,Mostly Cloudy,190,2012-12-17 19:53:00
3:53 PM,63.0,55.9,78,29.77,10.0,South,4.6,-,N/A,,Overcast,190,2012-12-17 20:53:00
4:19 PM,62.6,55.4,77,29.78,10.0,South,8.1,-,N/A,,Overcast,190,2012-12-17 21:19:00
4:53 PM,61.0,55.9,83,29.77,10.0,South,9.2,-,N/A,,Overcast,190,2012-12-17 21:53:00
7:53 PM,59.0,55.0,87,29.68,10.0,South,11.5,-,0.00,,Overcast,180,2012-12-18 00:53:00
8:53 PM,60.1,53.1,78,29.61,10.0,South,16.1,25.3,N/A,,Mostly Cloudy,180,2012-12-18 01:53:00
9:18 PM,60.8,53.6,77,29.70,10.0,West,12.7,24.2,N/A,,Scattered Clouds,260,2012-12-18 02:18:00
9:53 PM,60.1,53.1,78,29.68,10.0,SW,10.4,-,N/A,,Clear,220,2012-12-18 02:53:00
10:53 PM,59.0,53.1,81,29.68,10.0,SSW,11.5,-,N/A,,Overcast,210,2012-12-18 03:53:00
11:53 PM,59.0,53.1,81,29.66,10.0,South,10.4,-,N/A,,Scattered Clouds,190,2012-12-18 04:53:00